Date String (YYYY-MM-DD hh:mm:ss) UTC,Instrument flags,Ambient pressure (hPa),Sample flow (lpm),Bypass flow (lpm),Sample temperature (°C),Ambient temperature (°C),ASC tube jacket temperature (°C),LED temperature (°C),Box temperature (°C),Sample RH (%),Span deviation,Mass concentration (μg/m³),Mass concentration (μg/m³),Mass concentration (μg/m³)
DateTimeUTC,F1_M11,P_M11,Q1_M11,Q2_M11,T1_M11,T2_M11,T3_M11,T4_M11,T5_M11,U1_M11,ZSPAN_M11,X2_M11,X0_M11,X1_M11
2023-03-02 01:00:00,,0816.9,4.99,0.00,22.3,21.4,00.0,31.0,24.0,16.1,0000.0,0002.56,0007.14,0001.85
2023-03-02 01:01:00,,0817.0,5.00,0.00,22.3,21.2,00.0,31.0,24.0,16.1,0000.0,0002.53,0006.35,0001.84
2023-03-02 01:02:00,,0817.0,5.00,0.00,22.3,21.0,00.0,31.0,24.0,16.1,0000.0,0002.44,0004.74,0001.83
2023-03-02 01:03:00,,0817.0,5.01,0.00,22.3,20.8,00.0,31.0,23.9,16.1,0000.0,0002.36,0004.53,0001.83
2023-03-02 01:04:00,,0817.0,4.99,0.00,22.3,20.7,00.0,31.0,23.9,16.1,0000.0,0002.35,0004.48,0001.84
2023-03-02 01:05:00,,0817.1,4.99,0.00,22.3,20.6,00.0,31.0,24.0,16.1,0000.0,0002.34,0004.40,0001.84
2023-03-02 01:06:00,,0817.0,4.96,0.00,22.2,20.5,00.0,31.0,23.9,16.1,0000.0,0002.35,0004.42,0001.86
2023-03-02 01:07:00,,0817.1,5.00,0.00,22.2,20.5,00.0,31.0,23.9,16.1,0000.0,0002.40,0004.62,0001.88
2023-03-02 01:08:00,,0817.1,5.01,0.00,22.2,20.4,00.0,31.0,23.9,16.1,0000.0,0002.42,0003.91,0001.90
2023-03-02 01:09:00,,0817.2,4.99,0.00,22.2,20.4,00.0,31.0,23.9,16.2,0000.0,0002.48,0004.90,0001.91
2023-03-02 01:10:00,,0817.1,5.00,0.00,22.2,20.4,00.0,31.0,23.9,16.2,0000.0,0002.54,0005.09,0001.92
2023-03-02 01:11:00,,0817.1,5.00,0.00,22.2,20.3,00.0,31.0,23.8,16.2,0000.0,0002.55,0005.16,0001.91
2023-03-02 01:12:00,,0817.1,5.00,0.00,22.1,20.3,00.0,31.0,23.8,16.2,0000.0,0002.54,0005.20,0001.93
2023-03-02 01:13:00,,0817.1,5.00,0.00,22.1,20.3,00.0,31.0,23.8,16.2,0000.0,0002.59,0005.30,0001.94
2023-03-02 01:14:00,,0817.2,5.01,0.00,22.1,20.3,00.0,30.9,23.8,16.3,0000.0,0002.64,0005.46,0001.96
2023-03-02 01:15:00,,0817.1,4.99,0.00,22.1,20.3,00.0,30.9,23.8,16.3,0000.0,0002.71,0005.65,0001.97
2023-03-02 01:16:00,,0817.1,5.01,0.00,22.1,20.3,00.0,30.9,23.7,16.3,0000.0,0002.74,0006.50,0001.98
2023-03-02 01:17:00,,0817.2,5.01,0.00,22.1,21.4,00.0,30.9,24.0,16.3,0000.0,0002.81,0006.97,0001.98
2023-03-02 01:18:00,,0817.1,5.02,0.00,22.2,22.6,00.0,30.9,24.2,16.2,0000.0,0002.82,0007.20,0001.98
2023-03-02 01:19:00,,0817.1,5.04,0.00,22.3,23.0,00.0,30.9,24.3,16.1,0000.0,0002.85,0007.40,0001.98
2023-03-02 01:20:00,,0817.1,4.99,0.00,22.4,22.6,00.0,31.0,24.3,16.0,0000.0,0002.84,0006.56,0001.99
2023-03-02 01:21:00,,0817.0,5.01,0.00,22.4,22.2,00.0,31.0,24.2,16.0,0000.0,0002.84,0006.43,0002.00
2023-03-02 01:22:00,,0817.0,4.99,0.00,22.4,21.8,00.0,31.0,24.2,16.0,0000.0,0002.93,0006.69,0002.02
2023-03-02 01:23:00,,0817.0,5.00,0.00,22.4,21.5,00.0,31.0,24.1,16.0,0000.0,0003.00,0006.79,0002.03
2023-03-02 01:24:00,,0817.0,5.01,0.00,22.4,21.3,00.0,31.1,24.1,16.0,0000.0,0003.07,0007.20,0002.06
2023-03-02 01:25:00,,0817.0,5.01,0.00,22.4,21.2,00.0,31.1,24.1,16.0,0000.0,0003.12,0007.32,0002.09
2023-03-02 01:26:00,,0817.0,4.99,0.00,22.3,21.0,00.0,31.1,24.0,16.0,0000.0,0003.16,0007.47,0002.10
2023-03-02 01:27:00,,0817.0,5.01,0.00,22.3,21.0,00.0,31.1,24.0,16.0,0000.0,0003.16,0007.14,0002.13
2023-03-02 01:28:00,,0817.1,5.01,0.00,22.3,20.9,00.0,31.1,24.0,16.0,0000.0,0003.20,0006.88,0002.16
2023-03-02 01:29:00,,0817.0,4.99,0.00,22.3,20.8,00.0,31.1,24.0,16.0,0000.0,0003.19,0006.70,0002.18
2023-03-02 01:30:00,,0817.1,5.00,0.00,22.3,20.8,00.0,31.1,24.0,16.0,0000.0,0003.19,0006.56,0002.19
2023-03-02 01:31:00,,0817.1,5.00,0.00,22.3,20.7,00.0,31.1,24.0,16.0,0000.0,0003.22,0006.61,0002.22
2023-03-02 01:32:00,,0817.1,5.00,0.00,22.3,20.6,00.0,31.1,24.0,16.0,0000.0,0003.23,0006.98,0002.24
2023-03-02 01:33:00,,0817.2,5.01,0.00,22.3,20.6,00.0,31.0,23.9,16.0,0000.0,0003.22,0007.95,0002.27
2023-03-02 01:34:00,,0817.1,5.00,0.00,22.2,20.5,00.0,31.0,23.9,16.0,0000.0,0003.16,0007.77,0002.26
2023-03-02 01:35:00,,0817.2,4.99,0.00,22.2,20.5,00.0,31.0,23.9,16.0,0000.0,0003.14,0007.64,0002.27
2023-03-02 01:36:00,,0817.1,5.03,0.00,22.2,20.5,00.0,31.0,23.9,16.0,0000.0,0003.14,0007.54,0002.27
2023-03-02 01:37:00,,0817.2,5.01,0.00,22.2,20.4,00.0,31.0,23.9,16.0,0000.0,0003.12,0007.78,0002.28
2023-03-02 01:38:00,,0817.1,5.00,0.00,22.2,20.4,00.0,31.0,23.8,16.0,0000.0,0003.14,0008.15,0002.28
2023-03-02 01:39:00,,0817.2,5.01,0.00,22.2,20.4,00.0,31.0,23.8,16.0,0000.0,0003.09,0008.07,0002.26
2023-03-02 01:40:00,,0817.2,4.99,0.00,22.1,20.4,00.0,31.0,23.8,16.0,0000.0,0003.11,0008.05,0002.26
2023-03-02 01:41:00,,0817.2,5.00,0.00,22.2,20.8,00.0,30.9,23.9,16.0,0000.0,0003.12,0008.09,0002.25
2023-03-02 01:42:00,,0817.2,4.98,0.00,22.2,22.1,00.0,30.9,24.2,15.9,0000.0,0003.10,0008.08,0002.25
2023-03-02 01:43:00,,0817.2,5.00,0.00,22.4,23.1,00.0,31.0,24.4,15.8,0000.0,0003.07,0007.93,0002.23
2023-03-02 01:44:00,,0817.1,5.02,0.00,22.5,22.9,00.0,31.0,24.4,15.7,0000.0,0003.08,0006.81,0002.20
2023-03-02 01:45:00,,0817.1,5.01,0.00,22.5,22.4,00.0,31.0,24.3,15.7,0000.0,0003.11,0006.86,0002.20
2023-03-02 01:46:00,,0817.1,4.98,0.00,22.5,22.1,00.0,31.1,24.3,15.7,0000.0,0003.12,0006.96,0002.20
2023-03-02 01:47:00,,0817.1,4.99,0.00,22.5,21.8,00.0,31.1,24.3,15.6,0000.0,0003.06,0007.33,0002.19
2023-03-02 01:48:00,,0817.2,4.99,0.00,22.5,21.5,00.0,31.1,24.2,15.6,0000.0,0003.08,0007.06,0002.18
2023-03-02 01:49:00,,0817.1,5.00,0.00,22.4,21.3,00.0,31.1,24.2,15.6,0000.0,0003.04,0006.70,0002.19
2023-03-02 01:50:00,,0817.1,4.99,0.00,22.4,21.2,00.0,31.1,24.1,15.6,0000.0,0002.98,0007.09,0002.20
2023-03-02 01:51:00,,0817.2,5.00,0.00,22.4,21.1,00.0,31.1,24.1,15.6,0000.0,0002.92,0006.99,0002.19
2023-03-02 01:52:00,,0817.2,5.00,0.00,22.4,21.0,00.0,31.1,24.1,15.6,0000.0,0002.90,0006.89,0002.20
2023-03-02 01:53:00,,0817.3,4.99,0.00,22.4,20.9,00.0,31.1,24.1,15.6,0000.0,0002.91,0007.40,0002.21
2023-03-02 01:54:00,,0817.3,5.01,0.00,22.4,20.8,00.0,31.1,24.1,15.6,0000.0,0002.92,0007.51,0002.22
2023-03-02 01:55:00,,0817.3,5.01,0.00,22.4,20.8,00.0,31.1,24.0,15.6,0000.0,0002.92,0008.44,0002.22
2023-03-02 01:56:00,,0817.3,5.00,0.00,22.3,20.7,00.0,31.1,24.0,15.6,0000.0,0002.90,0009.06,0002.21
2023-03-02 01:57:00,,0817.3,5.01,0.00,22.3,20.7,00.0,31.1,24.0,15.6,0000.0,0002.85,0008.96,0002.19
2023-03-02 01:58:00,,0817.4,5.01,0.00,22.3,20.7,00.0,31.1,24.0,15.6,0000.0,0002.86,0009.12,0002.16
2023-03-02 01:59:00,,0817.4,5.00,0.00,22.3,20.6,00.0,31.1,24.0,15.6,0000.0,0002.79,0009.30,0002.14
